Find Starlink 5117

NORAD ID: 54172 Int'l Des: 2022-141 Owner: SPXS Country: US Constellation: starlink operational
LEOCIRCULAR

Live-Position

3D-Globus wird geladen...

Über Starlink 5117

Beschreibung wird geladen...

Nächste Überflüge

Passes for default location (London). Set your location on the main map for personalized predictions.

Höhenverlauf

Loading altitude history...

Zweizeiliger Elementsatz

1 54172U 22141R 26122.18284389 .00000134 00000-0 26530-4 0 9993
2 54172 53.2163 123.9507 0001207 78.2566 281.8561 15.08835704193939
Epoch: 2. Mai 2026 • Age: 3 hours

Aktueller Status

Höhe 547.6 km
Geschwindigkeit 7.59 km/s
Subsatellitenpunkt -25.81°S, 130.73°E
Startdatum 28. Okt. 2022
Alter 3.5 years
Typ internet

Technische Details

Klassifizierung Payload
Masse 305.00 kg
Trockenmasse 290.00 kg
Gesamtmasse 305.00 kg
Länge 0.20 m
Durchmesser 2.80 m
Spannweite 9.00 m
Form Box + pan
Hersteller SPXS
Bus-Typ Starlink
Phasenstatus In Orbit
Besitzer/Staat SPXS/US

Most Searched